Погода в Вермдё

Швеция     59°21′27″N   18°30′23″E
темп.,
°C
ветер,
м/с
пор.,
м/с
влажн.,
%
обл.,
%
осадки,
мм/ч
давл.,
гПа
погр.,
м
25 февраля, чт
чт2501:00+6зюз71490100 0.0 1015243
04:00+6з71591100 0.0 1014298
07:00+6зюз71590100 0.0 1014277
10:00+6юз71491100 0.0 1013361
13:00+6юз71489100 0.0 1012377
16:00+6юз71586100 0.0 1010365
19:00+6зюз71587100 0.1 1009411
22:00+5з8168093 0.0 1008434
26 февраля, пт
пт2601:00+4з8178047 0.0 1008474
04:00+4з816830 0.0 1007425
07:00+4з6138510 0.0 1007322
10:00+4зсз713771 0.0 1008309
13:00+6зсз611701 0.0 1010349
16:00+6сз511735 0.0 1011291
19:00+4ссз7147226 0.1 1015362
22:00+3ссз714750 0.0 1017358
27 февраля, сб
сб2701:00+2ссз714750 0.0 1021340
04:00+1ссз612780 0.0 1022297
07:000сз511840 0.0 1025252
10:00+2сз59810 0.0 1027266
13:00+3сз48760 0.0 1028266
16:00+3сз367614 0.0 1028123
19:00+2з348057 0.0 102843
22:00+2зсз4780100 0.0 1029143
28 февраля, вс
вс2801:00+2зсз3493100 0.9 102980
04:00+2зсз479190 0.1 1028129
07:00+1зсз478655 0.0 1029120
10:00+3зсз46786 0.0 1029107
13:00+5зсз477436 0.0 1030145
16:00+5зсз58740 0.0 1029126
19:00+4зсз56810 0.0 1030103
22:00+3зсз448243 0.0 103060
1 марта, пн
пн101:00+2зсз348122 0.0 103145
04:00+2з45800 0.0 103062
07:00+1зюз45841 0.0 102994
10:00+3зюз48800 0.0 1029173
13:00+4зюз48772 0.0 1028220
16:00+4зюз48780 0.0 1026196
19:00+3з48842 0.0 1026137
22:00+2зсз46910 0.0 1027111